User: anonymous
Location: Fort Wayne
(41.1310°N, 85.1290°W)
Time: 02:12:44
(UTC-04:00)
Language:

OPAL - Orbit

View from above orbital plane
View from above orbital plane
View from above satellite
View from above satellite

Ground track
Ground track

The orbit data is extracted from the following two-line orbital elements,

1 26063U 00004C   14112.98967147  .00000266  00000-0  11053-3 0  9460
2 26063 100.2028 248.9538 0035981 314.0843 045.7377 14.36347065746098
Epoch (UTC): 22 April 2014 23:45:07
Eccentricity: 0.0035981
inclination: 100.2028°
perigee height: 745 km
apogee height: 796 km
right ascension of ascending node: 248.9538°
argument of perigee: 314.0843°
revolutions per day: 14.36347065
mean anomaly at epoch: 45.7377°
orbit number at epoch: 74609

The dashed part of the orbit path shows where the satellite is in the earth's shadow,  

DLR